Location: Bay Ridge
(40.6340°N, 74.0146°W)
Time: 10:08:28
(UTC+00:00)

COSMO-SKYMED 1 - Pass Details

Date: 15 November 2019
Orbit: 621 x 623 km, 97.9° (Epoch: 07 December)

Event Time Altitude Azimuth Distance (km) Brightness Sun altitude
Rises 11:02:29 0° 198° (SSW) 2,889 6.0 -7.9°
Reaches altitude 10° 11:05:02 10° 213° (SSW) 1,988 5.0 -7.5°
Maximum altitude 11:08:28 23° 265° (W) 1,336 3.8 -6.8°
Drops below altitude 10° 11:11:56 10° 318° (NW) 1,999 4.6 -6.2°
Sets 11:14:31 0° 333° (NNW) 2,911 5.6 -5.8°
